This demonstration page uses our WeatherBlox Daily Observations layout. Learn more.

39.08367, -84.50855

Hourly Observations for January 5, 2019

Temp ( °F °C ) Dew Point ( °F °C ) Humidity (%) Winds ( mph kmh ) Pressure ( in mb ) Visibility ( mi km ) Precip ( " mm )
12:08 am 00:08 Cloudy with Light Rain 41 5 38 3.3 89 89 W 8 13 29.71 1006 7 11.265408 0.01 0.254
12:53 am 00:53 Cloudy 41 5 37 2.8 86 86 WNW 7 11 29.65 1004 10 16.09344 0.01 0.254
1:53 am 01:53 Mostly Cloudy 41 5 37 2.8 86 86 W 9 15 29.68 1005 10 16.09344 0 0
2:53 am 02:53 Clear 40 4.4 37 2.8 89 89 W 9 15 29.71 1006 10 16.09344 0 0
3:53 am 03:53 Clear 39 3.9 35 1.7 86 86 W 8 13 29.74 1007 10 16.09344 0 0
4:53 am 04:53 Clear 38 3.3 33 0.6 83 83 W 7 11 29.77 1008 10 16.09344 0 0
5:53 am 05:53 Clear 37 2.8 33 0.6 86 86 W 8 13 29.77 1008 10 16.09344 0 0
6:53 am 06:53 Clear 36 2.2 33 0.6 89 89 WSW 5 7 29.83 1010 10 16.09344 0 0
7:53 am 07:53 Clear 35 1.7 32 0 89 89 W 10 17 29.85 1011 10 16.09344 0 0
8:53 am 08:53 Sunny 37 2.8 33 0.6 86 86 WSW 7 11 29.88 1012 9 14.484096 0 0
9:53 am 09:53 Sunny 39 3.9 34 1.1 82 82 WSW 7 11 29.91 1013 10 16.09344 0 0
10:53 am 10:53 Sunny 42 5.6 35 1.7 76 76 SW 6 9 29.94 1014 10 16.09344 0 0
11:53 am 11:53 Sunny 45 7.2 36 2.2 71 71 W 12 19 29.94 1014 10 16.09344 0 0
12:53 pm 12:53 Sunny 48 8.9 37 2.8 66 66 W 8 13 29.94 1014 10 16.09344 0 0
1:53 pm 13:53 Sunny 50 10 38 3.3 63 63 W 13 20 29.94 1014 10 16.09344 0 0
2:53 pm 14:53 Sunny 52 11.1 39 3.9 61 61 SSW 8 13 29.94 1014 10 16.09344 0 0
3:53 pm 15:53 Sunny 52 11.1 39 3.9 61 61 SSW 9 15 29.94 1014 10 16.09344 0 0
4:53 pm 16:53 Sunny 50 10 39 3.9 66 66 SSW 10 17 29.97 1015 10 16.09344 0 0
5:53 pm 17:53 Clear 44 6.7 37 2.8 76 76 S 7 11 29.97 1015 10 16.09344 0 0
6:53 pm 18:53 Clear 42 5.6 37 2.8 82 82 SW 5 7 30 1016 10 16.09344 0 0
7:53 pm 19:53 Clear 41 5 37 2.8 86 86 Calm 30 1016 10 16.09344 0 0
8:53 pm 20:53 Clear 40 4.4 37 2.8 89 89 Calm 30 1016 10 16.09344 0 0
9:53 pm 21:53 Clear 39 3.9 37 2.8 93 93 SSW 3 6 30.03 1017 10 16.09344 0 0
10:53 pm 22:53 Clear 40 4.4 36 2.2 86 86 SSW 5 7 30.06 1018 10 16.09344 0 0
11:53 pm 23:53 Clear 40 4.4 36 2.2 86 86 SSW 7 11 30.06 1018 10 16.09344 0 0

Powered by AerisWeather